Hourly Weather Dziemiony

Today, 15 May, Saturday

Time Temperature Precipitation Wind Pressure Humidity
00:00 +10°C° 0 mm 3 mps 745 mmHg 94%
01:00 +10°C° 0 mm 3 mps 745 mmHg 94%
02:00 +10°C° 0 mm 3 mps 745 mmHg 93%
03:00 +10°C° 0 mm 3 mps 745 mmHg 93%
04:00 +10°C° 0 mm 3 mps 745 mmHg 93%
05:00 +10°C° 0.1 mm 3 mps 746 mmHg 92%
06:00 +10°C° 0.1 mm 4 mps 746 mmHg 91%
07:00 +10°C° 0.1 mm 4 mps 746 mmHg 91%
08:00 +11°C° 0 mm 4 mps 747 mmHg 85%
09:00 +12°C° 0 mm 4 mps 747 mmHg 80%
10:00 +13°C° 0 mm 4 mps 747 mmHg 74%
11:00 +14°C° 0 mm 4 mps 747 mmHg 66%
12:00 +17°C° 0 mm 4 mps 747 mmHg 58%
13:00 +18°C° 0 mm 4 mps 747 mmHg 50%
14:00 +18°C° 0 mm 3 mps 747 mmHg 50%
15:00 +19°C° 0 mm 3 mps 746 mmHg 50%
16:00 +19°C° 0 mm 3 mps 746 mmHg 50%
17:00 +17°C° 0 mm 3 mps 746 mmHg 58%
18:00 +16°C° 0 mm 2 mps 746 mmHg 67%
19:00 +15°C° 0 mm 2 mps 746 mmHg 75%
20:00 +13°C° 0.2 mm 3 mps 746 mmHg 79%
21:00 +12°C° 0.2 mm 3 mps 746 mmHg 82%
22:00 +11°C° 0.2 mm 3 mps 746 mmHg 86%
23:00 +12°C° 0.8 mm 2 mps 746 mmHg 88%

Tomorrow, 16 May, Sunday

Time Temperature Precipitation Wind Pressure Humidity
00:00 +12°C° 0.8 mm 2 mps 746 mmHg 91%
01:00 +11°C° 0.8 mm 1 mps 746 mmHg 94%
02:00 +11°C° 0.6 mm 1 mps 745 mmHg 95%
03:00 +11°C° 0.6 mm 1 mps 745 mmHg 96%
04:00 +11°C° 0.6 mm 1 mps 745 mmHg 97%
05:00 +12°C° 0.1 mm 2 mps 745 mmHg 94%
06:00 +13°C° 0.1 mm 2 mps 745 mmHg 91%
07:00 +12°C° 0.1 mm 3 mps 745 mmHg 89%
08:00 +13°C° 0.2 mm 3 mps 745 mmHg 82%
09:00 +14°C° 0.2 mm 3 mps 745 mmHg 76%
10:00 +16°C° 0.2 mm 3 mps 745 mmHg 70%
11:00 +17°C° 0.4 mm 3 mps 745 mmHg 68%
12:00 +17°C° 0.4 mm 4 mps 745 mmHg 66%
13:00 +17°C° 0.4 mm 4 mps 745 mmHg 65%
14:00 +17°C° 0.3 mm 3 mps 745 mmHg 65%
15:00 +17°C° 0.3 mm 3 mps 744 mmHg 66%
16:00 +16°C° 0.3 mm 2 mps 744 mmHg 66%
17:00 +15°C° 0.1 mm 2 mps 744 mmHg 71%
18:00 +14°C° 0.1 mm 1 mps 744 mmHg 76%
19:00 +13°C° 0.1 mm 1 mps 744 mmHg 81%
20:00 +13°C° 0 mm 1 mps 744 mmHg 82%
21:00 +12°C° 0 mm 2 mps 744 mmHg 84%
22:00 +10°C° 0 mm 2 mps 744 mmHg 85%
23:00 +10°C° 0 mm 2 mps 744 mmHg 88%

Day after tomorrow, 17 May, Monday

Time Temperature Precipitation Wind Pressure Humidity
00:00 +9°C° 0 mm 2 mps 744 mmHg 90%
01:00 +8°C° 0 mm 2 mps 744 mmHg 93%
02:00 +8°C° 0 mm 2 mps 744 mmHg 93%
03:00 +8°C° 0 mm 2 mps 744 mmHg 93%
04:00 +7°C° 0 mm 2 mps 744 mmHg 94%
05:00 +9°C° 0 mm 3 mps 744 mmHg 89%
06:00 +11°C° 0 mm 3 mps 744 mmHg 84%
07:00 +12°C° 0 mm 3 mps 745 mmHg 79%
08:00 +13°C° 0.2 mm 3 mps 745 mmHg 77%
09:00 +14°C° 0.2 mm 4 mps 745 mmHg 74%
10:00 +15°C° 0.2 mm 4 mps 744 mmHg 71%
11:00 +15°C° 0.6 mm 4 mps 744 mmHg 73%
12:00 +15°C° 0.6 mm 4 mps 745 mmHg 74%
13:00 +14°C° 0.6 mm 4 mps 745 mmHg 76%
14:00 +14°C° 0.6 mm 3 mps 744 mmHg 76%
15:00 +14°C° 0.6 mm 3 mps 744 mmHg 77%
16:00 +16°C° 0.6 mm 3 mps 744 mmHg 77%
17:00 +14°C° 0.5 mm 3 mps 744 mmHg 80%
18:00 +14°C° 0.5 mm 2 mps 744 mmHg 83%
19:00 +13°C° 0.5 mm 2 mps 744 mmHg 86%
20:00 +12°C° 0.1 mm 2 mps 744 mmHg 89%
21:00 +10°C° 0.1 mm 2 mps 744 mmHg 91%
22:00 +10°C° 0.1 mm 3 mps 744 mmHg 94%
23:00 +9°C° 0 mm 3 mps 744 mmHg 95%

18 May, Tuesday

Time Temperature Precipitation Wind Pressure Humidity
00:00 +9°C° 0 mm 3 mps 744 mmHg 95%
01:00 +9°C° 0 mm 3 mps 744 mmHg 96%
02:00 +9°C° 0 mm 3 mps 744 mmHg 96%
03:00 +9°C° 0 mm 3 mps 744 mmHg 96%
04:00 +7°C° 0 mm 4 mps 744 mmHg 97%
05:00 +8°C° 0 mm 4 mps 745 mmHg 96%
06:00 +8°C° 0 mm 4 mps 745 mmHg 94%
07:00 +10°C° 0 mm 4 mps 745 mmHg 93%
08:00 +11°C° 0.1 mm 4 mps 745 mmHg 89%
09:00 +12°C° 0.1 mm 5 mps 745 mmHg 84%
10:00 +12°C° 0.1 mm 5 mps 746 mmHg 80%
11:00 +13°C° 0.2 mm 5 mps 746 mmHg 76%
12:00 +14°C° 0.2 mm 5 mps 746 mmHg 72%
13:00 +14°C° 0.2 mm 6 mps 746 mmHg 68%
14:00 +14°C° 0.2 mm 5 mps 746 mmHg 69%
15:00 +14°C° 0.2 mm 5 mps 746 mmHg 69%
16:00 +14°C° 0.2 mm 5 mps 746 mmHg 69%
17:00 +13°C° 0.1 mm 4 mps 746 mmHg 74%
18:00 +12°C° 0.1 mm 4 mps 746 mmHg 79%
19:00 +11°C° 0.1 mm 3 mps 747 mmHg 85%
20:00 +10°C° 0 mm 3 mps 747 mmHg 88%
21:00 +9°C° 0 mm 3 mps 747 mmHg 91%
22:00 +8°C° 0 mm 3 mps 748 mmHg 94%
23:00 +8°C° 0 mm 3 mps 748 mmHg 94%

19 May, Wednesday

Time Temperature Precipitation Wind Pressure Humidity
00:00 +8°C° 0 mm 2 mps 748 mmHg 94%
01:00 +7°C° 0 mm 2 mps 748 mmHg 95%
02:00 +7°C° 0 mm 2 mps 748 mmHg 95%
03:00 +7°C° 0 mm 2 mps 748 mmHg 95%
04:00 +6°C° 0 mm 2 mps 748 mmHg 96%
05:00 +8°C° 0 mm 3 mps 748 mmHg 92%
06:00 +9°C° 0 mm 3 mps 749 mmHg 89%
07:00 +10°C° 0 mm 3 mps 749 mmHg 85%
08:00 +10°C° 0.1 mm 4 mps 749 mmHg 83%
09:00 +11°C° 0.1 mm 4 mps 750 mmHg 82%
10:00 +10°C° 0.1 mm 5 mps 750 mmHg 81%
11:00 +12°C° 0.1 mm 5 mps 750 mmHg 75%
12:00 +13°C° 0.1 mm 4 mps 750 mmHg 69%
13:00 +14°C° 0.1 mm 4 mps 750 mmHg 63%
14:00 +13°C° 0.3 mm 4 mps 750 mmHg 65%
15:00 +13°C° 0.3 mm 4 mps 750 mmHg 67%
16:00 +13°C° 0.3 mm 4 mps 750 mmHg 70%
17:00 +12°C° 0.3 mm 4 mps 750 mmHg 74%
18:00 +11°C° 0.3 mm 3 mps 750 mmHg 79%
19:00 +10°C° 0.3 mm 2 mps 750 mmHg 84%
20:00 +9°C° 0 mm 2 mps 751 mmHg 86%
21:00 +8°C° 0 mm 2 mps 751 mmHg 89%
22:00 +7°C° 0 mm 2 mps 751 mmHg 91%
23:00 +7°C° 0 mm 2 mps 751 mmHg 92%

20 May, Thursday

Time Temperature Precipitation Wind Pressure Humidity
00:00 +6°C° 0 mm 2 mps 751 mmHg 93%
01:00 +6°C° 0 mm 2 mps 751 mmHg 94%
02:00 +6°C° 0 mm 2 mps 751 mmHg 94%
03:00 +5°C° 0 mm 2 mps 751 mmHg 95%
04:00 +4°C° 0 mm 3 mps 751 mmHg 95%
05:00 +7°C° 0 mm 3 mps 751 mmHg 92%
06:00 +7°C° 0 mm 4 mps 752 mmHg 89%
07:00 +8°C° 0 mm 4 mps 752 mmHg 86%
08:00 +9°C° 0.1 mm 5 mps 752 mmHg 78%
09:00 +10°C° 0.1 mm 6 mps 752 mmHg 70%
10:00 +11°C° 0.1 mm 6 mps 752 mmHg 62%
11:00 +11°C° 0.1 mm 6 mps 752 mmHg 61%
12:00 +11°C° 0.1 mm 7 mps 752 mmHg 60%
13:00 +12°C° 0.1 mm 7 mps 753 mmHg 58%
14:00 +11°C° 0 mm 7 mps 753 mmHg 56%
15:00 +11°C° 0 mm 6 mps 753 mmHg 53%
16:00 +11°C° 0 mm 6 mps 753 mmHg 50%
17:00 +10°C° 0 mm 6 mps 753 mmHg 56%
18:00 +8°C° 0 mm 5 mps 753 mmHg 61%
19:00 +7°C° 0 mm 4 mps 753 mmHg 66%
20:00 +6°C° 0 mm 4 mps 753 mmHg 69%
21:00 +5°C° 0 mm 3 mps 753 mmHg 72%
22:00 +4°C° 0 mm 3 mps 753 mmHg 75%
23:00 +4°C° 0 mm 3 mps 753 mmHg 74%
Show more

We Need Your Consent

Meteoprog and our Service Providers may store and access personal data such as cookies, device identifiers or other similar technologies on your device and process such data to personalise content and ads, as well as provide social media features and to analyse the traffic.

  • Store and/or access information on your device

    Cookies, device identifiers or other information can be stored or accessed on your device for the purposes indicated above.

  • Personalised ads and content, ad and content measurement, audience insights, and products development

    Ads and content can be personalised based on a profile. More data can be added to better personalise ads and content. Ad and content performance can be measured. Insights about the audience who saw the ads and content can be derived. Such data can be used to develop or improve user’s experience, systems and software.

By clicking ‘I Agree’ you will allow the use of indicated cookies, device identifiers, web beacons or other similar technologies. Your settings can be changed in the browser on your device.

For certain purposes, legitimate interests may be relied on, rather than consent. You can read more about this in our Privacy and Cookie Policy.